EW5042 Messina IT current weather conditions

sailwx.info

Wind from 112

Air temperature 12.2° C
Dewpoint 8.7° C

Last reported at 2020-Jan-22 15:00 UTC.
Time now 2020-Jan-22 15:40 UTC

Location: N 38°13' E 015°32'.
View on Google Maps.

See reports from other nearby stations

  
Tides and Currents Weather Stations Pressure Air Temp Water Temp Dewpoint Dewpoint Depression Visibility Wind Speed Wind Dir Waves Ship Positions
date/time (UTC)wind fromknots sea level pressurealtimeterstation pressurevisibilityair tempwater tempwave heightnotes
2020-Jan-22 15:00 112 12.2
2020-Jan-22 14:45 111 12.2
2020-Jan-22 14:30 132 12.2
2020-Jan-22 14:15 214 12.8
2020-Jan-22 14:00 150 12.8
2020-Jan-22 13:45 180 13.3
2020-Jan-22 13:30 070 13.3
2020-Jan-22 13:18 149 0 gusting 3 13.9
2020-Jan-22 13:02 114 14.4
2020-Jan-22 12:47 150 0 gusting 2 13.9
2020-Jan-22 12:31 232 0 gusting 4 13.9
2020-Jan-22 12:16 151 13.9
2020-Jan-22 12:01 153 0 gusting 4 13.9
2020-Jan-22 11:46 123 13.3
2020-Jan-22 11:32 175 2 gusting 6 13.3
2020-Jan-22 11:15 175 0 gusting 6 13.3
2020-Jan-22 11:01 183 2 gusting 6 12.8
2020-Jan-22 10:46 132 0 gusting 6 12.8
2020-Jan-22 10:31 160 1 gusting 6 12.8
2020-Jan-22 10:16 182 1 gusting 9 13.3
2020-Jan-22 10:01 277 1 gusting 6 13.9
2020-Jan-22 09:46 088 0 gusting 6 13.9
2020-Jan-22 09:31 185 1 gusting 8 13.3
2020-Jan-22 09:15 132 1 gusting 5 12.8
2020-Jan-22 09:00 223 3 gusting 7 12.8
2020-Jan-22 08:45 207 1 gusting 5 12.8
2020-Jan-22 08:30 171 0 gusting 6 12.8
2020-Jan-22 08:15 184 0 gusting 6 12.2
2020-Jan-22 08:00 020 11.1
2020-Jan-22 07:45 317 10.0
2020-Jan-22 07:30 321 8.9
2020-Jan-22 07:15 321 8.9
2020-Jan-22 07:00 321 8.3
2020-Jan-22 06:45 321 8.9
2020-Jan-22 06:17 082 0 gusting 3 7.8
2020-Jan-22 06:03 013 7.8
2020-Jan-22 05:46 013 8.3
2020-Jan-22 05:31 013 8.3
2020-Jan-22 05:17 013 8.3
2020-Jan-22 05:02 013 8.3
2020-Jan-22 04:46 013 8.9
2020-Jan-22 04:32 005 8.9
2020-Jan-22 04:16 005 9.4
2020-Jan-22 04:01 036 9.4
2020-Jan-22 03:46 036 10.0
2020-Jan-22 03:30 009 0 gusting 3 10.0
2020-Jan-22 03:16 005 10.0
2020-Jan-22 03:01 015 10.0
2020-Jan-22 02:46 017 10.0
2020-Jan-22 02:31 018 10.0
2020-Jan-22 02:16 015 10.0
2020-Jan-22 02:02 014 10.6
2020-Jan-22 01:46 331 10.6
2020-Jan-22 01:31 284 10.6
2020-Jan-22 01:16 332 11.1
2020-Jan-22 01:01 306 11.1
2020-Jan-22 00:46 119 0 gusting 6 11.7
2020-Jan-22 00:31 170 2 gusting 8 11.7
2020-Jan-22 00:16 257 2 gusting 11 11.7
2020-Jan-22 00:01 153 1 gusting 7 11.7
2020-Jan-21 23:45 127 2 gusting 8 11.1
2020-Jan-21 23:30 348 0 gusting 3 11.1
2020-Jan-21 23:15 297 11.7
2020-Jan-21 23:00 133 11.7
2020-Jan-21 22:45 254 1 gusting 6 11.7
2020-Jan-21 22:32 142 0 gusting 3 11.7
2020-Jan-21 22:18 163 2 gusting 8 11.7
2020-Jan-21 22:03 063 2 gusting 10 11.7
2020-Jan-21 21:46 346 2 gusting 6 11.7
2020-Jan-21 21:32 120 0 gusting 8 11.7
2020-Jan-21 21:16 257 1 gusting 7 11.7
2020-Jan-21 21:01 343 1 gusting 5 11.7
2020-Jan-21 20:48 317 11.7
2020-Jan-21 20:31 346 11.7
2020-Jan-21 20:16 299 1 gusting 7 11.7
2020-Jan-21 20:01 041 11.7
2020-Jan-21 19:31 315 11.7
2020-Jan-21 19:01 292 11.7
2020-Jan-21 18:45 292 12.2
2020-Jan-21 18:32 231 12.8
2020-Jan-21 18:15 231 0 gusting 4 12.8
2020-Jan-21 18:02 092 1 gusting 6 12.8
2020-Jan-21 17:17 013 1 gusting 5 12.8
2020-Jan-21 16:45 005 12.8
2020-Jan-21 16:32 005 12.8
2020-Jan-21 16:15 009 12.8
2020-Jan-21 15:46 022 13.3
2020-Jan-21 15:33 097 13.3
2020-Jan-21 15:17 210 13.3
2020-Jan-21 15:02 326 0 gusting 3 13.3
2020-Jan-21 14:47 028 13.3
2020-Jan-21 14:31 026 13.3
2020-Jan-21 14:15 028 0 gusting 5 13.3
2020-Jan-21 14:00 290 13.3
2020-Jan-21 13:46 243 0 gusting 3 13.9
2020-Jan-21 13:30 302 1 gusting 6 14.4
2020-Jan-21 13:15 099 14.4
2020-Jan-21 13:03 099 14.4
2020-Jan-21 12:47 101 14.4
2020-Jan-21 12:31 152 14.4
2020-Jan-21 12:16 130 14.4
2020-Jan-21 12:02 083 14.4
2020-Jan-21 11:46 013 14.4
2020-Jan-21 11:31 026 15.0
2020-Jan-21 11:16 094 14.4
2020-Jan-21 11:00 094 14.4
2020-Jan-21 10:45 092 14.4
2020-Jan-21 10:31 092 14.4
2020-Jan-21 10:15 094 13.9
2020-Jan-21 10:02 094 0 gusting 5 13.9
2020-Jan-21 09:46 085 14.4
2020-Jan-21 09:31 088 14.4
2020-Jan-21 09:15 088 14.4
2020-Jan-21 09:00 080 13.9
2020-Jan-21 08:47 096 13.9
2020-Jan-21 08:32 058 13.3
2020-Jan-21 08:17 109 0 gusting 2 13.3
2020-Jan-21 08:01 094 13.3
2020-Jan-21 07:47 206 13.3
2020-Jan-21 07:31 119 13.3
2020-Jan-21 07:16 311 13.3
2020-Jan-21 07:00 125 13.3
2020-Jan-21 06:46 125 0 gusting 5 12.8
2020-Jan-21 06:31 338 0 gusting 4 13.3
2020-Jan-21 06:15 317 0 gusting 4 12.8
2020-Jan-21 06:00 253 0 gusting 4 12.8
2020-Jan-21 05:46 221 1 gusting 5 13.3
2020-Jan-21 05:30 190 1 gusting 7 13.3
2020-Jan-21 05:00 224 12.8
2020-Jan-21 04:45 138 12.8
2020-Jan-21 04:31 132 1 gusting 6 12.8
2020-Jan-21 04:15 093 1 gusting 9 12.2
2020-Jan-21 04:00 030 2 gusting 8 12.2
2020-Jan-21 03:45 159 2 gusting 7 12.8
2020-Jan-21 03:30 198 2 gusting 9 12.2
2020-Jan-21 03:15 294 1 gusting 8 12.8
2020-Jan-21 03:01 298 3 gusting 8 12.8
2020-Jan-21 02:46 077 2 gusting 7 12.8
2020-Jan-21 02:31 066 3 gusting 8 12.8
2020-Jan-21 02:16 156 2 gusting 7 12.8
2020-Jan-21 02:02 067 12.8
2020-Jan-21 01:46 205 1 gusting 6 12.8
2020-Jan-21 01:32 246 1 gusting 7 12.2
2020-Jan-21 01:16 196 12.2
2020-Jan-21 01:02 275 2 gusting 6 12.2
2020-Jan-21 00:47 255 3 gusting 8 12.2
2020-Jan-21 00:32 245 1 gusting 6 12.2
2020-Jan-21 00:15 277 1 gusting 6 12.2
2020-Jan-21 00:00 058 1 gusting 6 12.2
2020-Jan-20 23:45 263 2 gusting 6 12.2
2020-Jan-20 23:30 191 1 gusting 10 12.8
2020-Jan-20 23:19 092 2 gusting 10 12.2
2020-Jan-20 23:01 298 2 gusting 10 12.2
2020-Jan-20 22:47 149 2 gusting 8 12.8
2020-Jan-20 22:31 132 2 gusting 9 12.8
2020-Jan-20 22:16 209 4 gusting 8 12.2
2020-Jan-20 22:00 281 0 gusting 9 12.2
2020-Jan-20 21:45 276 1 gusting 7 12.2
2020-Jan-20 21:30 219 2 gusting 9 12.2
2020-Jan-20 21:17 212 2 gusting 9 12.8
2020-Jan-20 21:02 286 2 gusting 7 12.8
2020-Jan-20 20:47 046 3 gusting 11 12.8
2020-Jan-20 20:33 313 4 gusting 9 12.8
2020-Jan-20 20:16 248 3 gusting 9 12.8
2020-Jan-20 20:03 181 3 gusting 9 12.2
2020-Jan-20 19:47 203 3 gusting 11 12.2
2020-Jan-20 19:32 035 1 gusting 6 12.2
2020-Jan-20 19:16 313 0 gusting 8 12.2
2020-Jan-20 19:02 268 3 gusting 7 12.8
2020-Jan-20 18:46 244 1 gusting 6 12.8
2020-Jan-20 18:32 269 2 gusting 7 12.8
2020-Jan-20 18:15 161 2 gusting 8 12.8
2020-Jan-20 18:01 234 1 gusting 7 12.8
2020-Jan-20 17:46 110 0 gusting 7 12.8
2020-Jan-20 17:30 200 0 gusting 4 12.8
2020-Jan-20 17:15 224 0 gusting 6 12.8
2020-Jan-20 17:00 115 1 gusting 7 12.8
2020-Jan-20 16:45 339 0 gusting 6 12.8
2020-Jan-20 16:31 360 2 gusting 7 12.8
2020-Jan-20 16:16 045 1 gusting 5 12.8
2020-Jan-20 16:02 076 13.3
2020-Jan-20 15:46 279 13.3
2020-Jan-20 15:31 030 13.3
2020-Jan-20 15:16 274 0 gusting 5 13.3
2020-Jan-20 15:00 040 13.3